Location: ActonStarParty
(42.4766°N, 71.4538°W)
Time: 22:34:58
(UTC-04:00)

ATLAS 5 CENTAUR R/B - Visible Passes

Search period start: 30 June 2016 00:00
Search period end: 10 July 2016 00:00
Orbit: 246 x 14752 km, 60.8° (Epoch: 30 March)

Date Brightness Start Highest point End Pass type
(mag) Time Alt. Az. Time Alt. Az. Time Alt. Az.
30 Jun 7.8 03:55:04 10° ESE 04:34:44 31° ENE 05:56:47 10° NNE visible
01 Jul 8.7 02:41:43 10° ENE 03:11:02 14° NE 03:48:33 10° NNE visible
02 Jul 9.4 20:47:13 10° NW 21:03:59 11° NW 21:18:38 10° NW visible
03 Jul 7.8 03:28:49 10° ESE 04:08:08 29° ENE 05:26:37 10° NNE visible
04 Jul 8.8 02:19:26 10° ENE 02:44:30 13° NE 03:14:58 10° NNE visible
05 Jul 7.3 04:32:27 10° SSE 05:09:39 49° E 06:56:05 10° NE visible
05 Jul 9.3 20:09:31 10° NNW 20:36:49 12° NW 20:58:39 10° WNW visible
06 Jul 7.9 03:01:28 10° ESE 03:40:22 27° ENE 04:54:33 10° NNE visible
07 Jul 8.9 01:59:03 10° NE 02:16:51 11° NE 02:37:01 10° NE visible
08 Jul 7.3 04:03:08 10° SSE 04:40:17 46° E 06:23:15 10° NE visible
09 Jul 7.9 02:33:12 10° ESE 03:11:25 25° ENE 04:20:31 10° NNE visible
